Terug naar catalogus

SL-8 R/B

ActiefPO
NORAD 16494·ROCKET BODY·🇷🇺 Russia

Gelanceerd Jan 16, 1986 vanaf Plesetsk Cosmodrome

Loading…

Volgende Passages (komende 24 uur)

TLE

VersSource: Space-Track

Epoch: Sep 14, 2026, 23:19 UTC

1 16494U 86005B   26257.97169988 -.00000050  00000-0 -66196-4 0  9991
2 16494  82.9271  79.7761 0020073 151.1731  12.2833 13.76798774 42243

Volg SL-8 R/B in realtime met AllMySat

Download on the App Store